Tracking 30995 objects as of 5-Jul-2025
HD Live streaming from Space Station
objects crossing your sky now

STARLINK-4695

Track STARLINK-4695 now!
10-day predictions
STARLINK-4695 is classified as:


NORAD ID: 53718
Int'l Code: 2022-107U
Perigee: 546.1 km
Apogee: 547.7 km
Inclination: 53.2 °
Period: 95.4 minutes
Semi major axis: 6917 km
RCS: Unknown
Launch date: September 5, 2022
Source: United States (US)
Launch site: AIR FORCE EASTERN TEST RANGE (AFETR)
Your satellite tracking list
COSMOS 1610
Track 1 satellite(s)




NASA's NSSDC Master Catalog

Two Line Element Set (TLE):
1 53718U 22107U   25185.58082990  .00000131  00000-0  26315-4 0  9994
2 53718  53.2181 288.1896 0001120  84.2129 275.8991 15.08835419156948
Source of the keplerian elements: AFSPC